Hillsdale, MI

9:27 PM EST on February 11, 2016 (GMT -0500)
Hillsdale Municipal

Weather History for KJYM - October, 2012

Change the Weather History Date:

Monday, October 22, 2012

  Actual Average Record
Temperature  
Mean Temperature 58 °F -  
Max Temperature 70 °F 57 °F 80 °F (1963)
Min Temperature 47 °F 37 °F 24 °F (1967)
Degree Days  
Heating Degree Days 6    
Growing Degree Days 8 (Base 50)    
Moisture  
Dew Point 52 °F    
Average Humidity 78    
Maximum Humidity 94    
Minimum Humidity 57    
Precipitation  
Precipitation 0.00 in - - ()
Sea Level Pressure  
Sea Level Pressure 30.03 in    
Wind  
Wind Speed 4 mph (South)    
Max Wind Speed 9 mph    
Max Gust Speed -    
Visibility 9 miles    
Events Rain    
Averages and records for this station are not official NWS values.
T = Trace of Precipitation, MM = Missing Value Source: NWS Daily Summary

Daily Weather History Graph

Daily Weather History Graph

Search for Another Location

Airport or City:

Trip Planner

Search our weather history database for the weather conditions in past years. The results will help you decide how hot, cold, wet, or windy it might be!

Date:

Astronomy

Oct. 22, 2012 Rise Set
Actual Time 7:59 AM EDT 6:45 PM EDT
Civil Twilight 7:30 AM EDT 7:13 PM EDT
Nautical Twilight 6:58 AM EDT 7:46 PM EDT
Astronomical Twilight 6:26 AM EDT 8:18 PM EDT
Moon 2:58 PM EDT (10/22) 12:38 AM EDT (10/22)
Length of Visible Light 11h 42m
Length of Day
10h 45m
First Quarter, 56% of the Moon is Illuminated
Oct 22
First Quarter
Oct 29
Full
Nov 6
Last Quarter
Nov 13
New
Nov 20
First Quarter

Hourly Weather History & Observations

Time (EDT) Temp. Dew Point Humidity Pressure Visibility Wind Dir Wind Speed Gust Speed Precip Events Conditions
12:15 AM 50.4 °F 45.1 °F 82% 30.08 in 10.0 mi South 3.5 mph - N/A   Clear
12:34 AM 50.5 °F 45.3 °F 82% 30.08 in 10.0 mi South 3.5 mph - N/A   Clear
12:55 AM 50.2 °F 45.1 °F 83% 30.08 in 10.0 mi South 4.6 mph - N/A   Clear
1:14 AM 49.8 °F 45.1 °F 84% 30.07 in 10.0 mi South 5.8 mph - N/A   Clear
1:54 AM 49.8 °F 45.5 °F 85% 30.06 in 10.0 mi South 4.6 mph - N/A   Clear
2:15 AM 48.6 °F 45.1 °F 88% 30.07 in 10.0 mi South 5.8 mph - N/A   Clear
2:35 AM 49.3 °F 45.7 °F 87% 30.06 in 10.0 mi South 5.8 mph - N/A   Clear
2:55 AM 49.5 °F 45.9 °F 87% 30.06 in 10.0 mi South 5.8 mph - N/A   Clear
3:14 AM 49.3 °F 45.9 °F 88% 30.07 in 10.0 mi SSE 3.5 mph - N/A   Clear
3:35 AM 48.7 °F 45.5 °F 89% 30.06 in 7.0 mi SSE 4.6 mph - N/A   Clear
3:55 AM 48.7 °F 45.7 °F 89% 30.07 in 7.0 mi SSE 4.6 mph - N/A   Clear
4:15 AM 49.1 °F 45.7 °F 88% 30.06 in 7.0 mi SSE 4.6 mph - N/A   Clear
4:54 AM 48.7 °F 45.7 °F 89% 30.06 in 7.0 mi Calm Calm - N/A   Clear
5:15 AM 48.6 °F 45.7 °F 90% 30.06 in 7.0 mi SSE 3.5 mph - N/A   Clear
5:35 AM 48.6 °F 45.7 °F 90% 30.07 in 7.0 mi SSE 3.5 mph - N/A   Clear
5:55 AM 48.7 °F 45.7 °F 89% 30.07 in 7.0 mi SSE 3.5 mph - N/A   Clear
6:14 AM 47.8 °F 45.3 °F 91% 30.07 in 7.0 mi South 4.6 mph - N/A   Clear
6:35 AM 48.6 °F 45.7 °F 90% 30.07 in 7.0 mi South 3.5 mph - N/A   Clear
6:54 AM 48.2 °F 45.5 °F 90% 30.07 in 7.0 mi South 3.5 mph - N/A   Clear
7:14 AM 48.0 °F 45.7 °F 92% 30.07 in 7.0 mi South 4.6 mph - N/A   Clear
7:34 AM 48.0 °F 45.7 °F 92% 30.06 in 7.0 mi South 4.6 mph - N/A   Clear
7:55 AM 48.2 °F 45.9 °F 92% 30.06 in 7.0 mi South 4.6 mph - N/A   Clear
8:14 AM 48.6 °F 45.9 °F 90% 30.06 in 5.0 mi South 3.5 mph - N/A   Clear
8:55 AM 49.6 °F 46.8 °F 90% 30.07 in 5.0 mi South 4.6 mph - N/A   Clear
9:14 AM 50.4 °F 47.1 °F 89% 30.07 in 7.0 mi South 5.8 mph - N/A   Scattered Clouds
9:35 AM 52.2 °F 48.0 °F 86% 30.07 in 7.0 mi South 4.6 mph - N/A   Clear
9:54 AM 54.1 °F 48.6 °F 81% 30.07 in 10.0 mi Calm Calm - N/A   Clear
10:15 AM 56.5 °F 49.8 °F 78% 30.08 in 10.0 mi South 4.6 mph - N/A   Clear
10:34 AM 58.8 °F 49.8 °F 72% 30.07 in 10.0 mi South 4.6 mph - N/A   Clear
10:55 AM 61.2 °F 50.5 °F 68% 30.06 in 10.0 mi South 4.6 mph - N/A   Clear
11:14 AM 63.1 °F 51.6 °F 66% 30.07 in 10.0 mi SSW 5.8 mph - N/A   Scattered Clouds
11:35 AM 62.1 °F 52.0 °F 70% 30.08 in 10.0 mi Calm Calm - N/A   Mostly Cloudy
11:55 AM 64.6 °F 52.0 °F 64% 30.06 in 10.0 mi South 4.6 mph - N/A   Mostly Cloudy
12:14 PM 66.7 °F 52.3 °F 60% 30.06 in 10.0 mi South 4.6 mph - N/A   Mostly Cloudy
12:35 PM 67.8 °F 52.5 °F 58% 30.05 in 10.0 mi South 6.9 mph - N/A   Scattered Clouds
12:55 PM 69.1 °F 53.1 °F 57% 30.04 in 10.0 mi South 5.8 mph - N/A   Clear
1:14 PM 68.5 °F 52.5 °F 57% 30.04 in 10.0 mi SSW 6.9 mph - N/A   Clear
1:35 PM 68.5 °F 52.9 °F 57% 30.04 in 10.0 mi South 5.8 mph - N/A   Clear
1:54 PM 68.4 °F 52.9 °F 58% 30.04 in 10.0 mi South 6.9 mph - N/A   Clear
2:15 PM 68.0 °F 53.4 °F 60% 30.04 in 10.0 mi South 5.8 mph - N/A   Mostly Cloudy
2:35 PM 69.3 °F 53.8 °F 58% 30.03 in 10.0 mi South 6.9 mph - N/A   Mostly Cloudy
2:54 PM 69.4 °F 54.3 °F 59% 30.02 in 10.0 mi South 9.2 mph - N/A   Mostly Cloudy
3:15 PM 69.6 °F 54.5 °F 59% 30.02 in 10.0 mi South 4.6 mph - N/A   Overcast
3:35 PM 69.6 °F 54.1 °F 58% 30.01 in 10.0 mi South 6.9 mph - N/A   Mostly Cloudy
4:15 PM 70.0 °F 55.2 °F 59% 30.01 in 10.0 mi SSW 5.8 mph - N/A   Mostly Cloudy
4:35 PM 68.9 °F 55.6 °F 62% 30.01 in 10.0 mi SSW 5.8 mph - N/A   Scattered Clouds
4:54 PM 69.1 °F 55.4 °F 62% 30.00 in 10.0 mi South 6.9 mph - N/A   Scattered Clouds
5:15 PM 68.5 °F 55.4 °F 63% 29.99 in 10.0 mi South 5.8 mph - N/A   Scattered Clouds
5:34 PM 68.4 °F 55.2 °F 63% 29.98 in 10.0 mi South 6.9 mph - N/A   Clear
5:55 PM 68.2 °F 55.0 °F 63% 29.97 in 10.0 mi SSE 4.6 mph - N/A   Clear
6:14 PM 67.6 °F 55.0 °F 64% 29.98 in 10.0 mi South 4.6 mph - N/A   Scattered Clouds
6:35 PM 67.1 °F 55.0 °F 65% 30.00 in 10.0 mi SSW 3.5 mph - N/A   Mostly Cloudy
6:55 PM 66.4 °F 56.1 °F 69% 30.00 in 10.0 mi WSW 3.5 mph - N/A Rain Light Rain
7:14 PM 66.2 °F 56.3 °F 70% 30.00 in 10.0 mi Calm Calm - N/A   Mostly Cloudy
7:34 PM 64.6 °F 57.9 °F 79% 30.00 in 10.0 mi Calm Calm - N/A Rain Light Rain
7:54 PM 63.5 °F 57.9 °F 82% 30.00 in 10.0 mi Calm Calm - N/A Rain Light Rain
8:14 PM 62.1 °F 57.9 °F 86% 30.00 in 10.0 mi Calm Calm - N/A   Overcast
8:35 PM 60.3 °F 57.9 °F 92% 30.00 in 10.0 mi Calm Calm - N/A   Mostly Cloudy
8:54 PM 61.2 °F 58.1 °F 90% 30.00 in 10.0 mi SE 4.6 mph - N/A   Scattered Clouds
9:14 PM 61.3 °F 57.9 °F 89% 29.99 in 10.0 mi SE 6.9 mph - N/A   Mostly Cloudy
9:35 PM 63.0 °F 58.8 °F 86% 30.00 in 10.0 mi West 3.5 mph - N/A   Mostly Cloudy
9:54 PM 61.2 °F 58.8 °F 92% 29.97 in 10.0 mi SE 4.6 mph - N/A Rain Light Rain
10:15 PM 61.7 °F 59.5 °F 93% 29.96 in 10.0 mi Calm Calm - N/A Rain Light Rain
10:35 PM 62.2 °F 59.9 °F 92% 29.97 in 4.0 mi South 3.5 mph - N/A Rain Heavy Rain
10:54 PM 62.1 °F 60.3 °F 94% 29.97 in 10.0 mi SSE 6.9 mph - N/A Rain Light Rain
11:15 PM 62.1 °F 60.4 °F 94% 29.97 in 10.0 mi South 5.8 mph - N/A   Overcast
11:35 PM 62.1 °F 60.3 °F 94% 29.98 in 10.0 mi South 4.6 mph - N/A   Overcast
11:55 PM 61.9 °F 59.9 °F 93% 29.97 in 10.0 mi South 8.1 mph - N/A   Overcast